Year,Month,Day,Hour,Minute,Value (Times are PST for temperature in C)
2010,06,22,13,45,23.40
2010,06,22,13,46,23.40
2010,06,22,13,47,23.50
2010,06,22,13,48,23.50
2010,06,22,13,49,23.50
2010,06,22,13,50,23.60
2010,06,22,13,51,23.70
2010,06,22,13,52,23.70
2010,06,22,13,54,23.60
2010,06,22,13,55,23.60
2010,06,22,13,56,23.60
2010,06,22,13,57,23.40
2010,06,22,13,58,23.30
2010,06,22,13,59,23.30
2010,06,22,14,00,23.40
2010,06,22,14,04,23.40
2010,06,22,14,05,23.40
2010,06,22,14,06,23.40
2010,06,22,14,07,23.40
2010,06,22,14,08,23.40
2010,06,22,14,09,23.40
2010,06,22,14,10,23.40
2010,06,22,14,11,23.30
2010,06,22,14,12,23.30
2010,06,22,14,13,23.20
2010,06,22,14,14,23.20
2010,06,22,14,15,23.10
2010,06,22,14,16,23.10
2010,06,22,14,17,23.00
2010,06,22,14,18,23.00
2010,06,22,14,19,23.00
2010,06,22,14,20,23.00
2010,06,22,14,21,23.10
2010,06,22,14,22,23.30
2010,06,22,14,23,23.40
2010,06,22,14,24,23.40
2010,06,22,14,25,23.40
2010,06,22,14,26,23.40
2010,06,22,14,27,23.40
2010,06,22,14,28,23.50
2010,06,22,14,29,23.50
2010,06,22,14,30,23.60
2010,06,22,14,31,23.60
2010,06,22,14,32,23.60
2010,06,22,14,33,23.60
2010,06,22,14,34,23.60
2010,06,22,14,35,23.50
2010,06,22,14,36,23.50
2010,06,22,14,37,23.50
2010,06,22,14,38,23.60
2010,06,22,14,39,23.60
2010,06,22,14,40,23.50
2010,06,22,14,41,23.40
2010,06,22,14,42,23.30
2010,06,22,14,43,23.30
2010,06,22,14,44,23.20
2010,06,22,14,45,23.10
2010,06,22,14,46,23.10
2010,06,22,14,47,23.10
2010,06,22,14,48,23.10
2010,06,22,14,49,23.10
2010,06,22,14,50,23.10
2010,06,22,14,51,23.10
2010,06,22,14,52,22.90
2010,06,22,14,53,22.80
2010,06,22,14,54,22.80
2010,06,22,14,55,22.80
2010,06,22,14,56,22.70
2010,06,22,14,57,22.70
2010,06,22,14,58,22.70
2010,06,22,14,59,22.70
2010,06,22,15,00,22.70
2010,06,22,15,01,22.60
2010,06,22,15,02,22.50
2010,06,22,15,03,22.40
2010,06,22,15,04,22.40
2010,06,22,15,05,22.40
2010,06,22,15,06,22.40
2010,06,22,15,07,22.40
2010,06,22,15,08,22.50
2010,06,22,15,09,22.50
2010,06,22,15,10,22.50
2010,06,22,15,11,22.50
2010,06,22,15,12,22.40
2010,06,22,15,13,22.40
2010,06,22,15,14,22.40
2010,06,22,15,15,22.40
2010,06,22,15,16,22.40
2010,06,22,15,17,22.40
2010,06,22,15,18,22.40
2010,06,22,15,19,22.40
2010,06,22,15,20,22.40
2010,06,22,15,21,22.30
2010,06,22,15,22,22.30
2010,06,22,15,23,22.30
2010,06,22,15,24,22.20
2010,06,22,15,25,22.20
2010,06,22,15,26,22.20
2010,06,22,15,27,22.20
2010,06,22,15,28,22.20
2010,06,22,15,29,22.20
2010,06,22,15,30,22.20
2010,06,22,15,31,22.20
2010,06,22,15,32,22.10
2010,06,22,15,33,22.10
2010,06,22,15,34,22.00
2010,06,22,15,35,22.00
2010,06,22,15,36,22.10
2010,06,22,15,37,22.10
2010,06,22,15,38,22.20
2010,06,22,15,39,22.20
2010,06,22,15,40,22.20
2010,06,22,15,41,22.30
2010,06,22,15,42,22.30
2010,06,22,15,43,22.40
2010,06,22,15,44,22.40
2010,06,22,15,45,22.40
2010,06,22,15,46,22.40
2010,06,22,15,47,22.40
2010,06,22,15,48,22.40
2010,06,22,15,49,22.40
2010,06,22,15,50,22.30
2010,06,22,15,51,22.30
2010,06,22,15,52,22.20
2010,06,22,15,53,22.20
2010,06,22,15,54,22.20
2010,06,22,15,55,22.20
2010,06,22,15,56,22.20
2010,06,22,15,57,22.30
2010,06,22,15,58,22.30
2010,06,22,15,59,22.30
2010,06,22,16,00,22.30
2010,06,22,16,01,22.40
2010,06,22,16,02,22.40
2010,06,22,16,03,22.40
2010,06,22,16,04,22.40
2010,06,22,16,05,22.40
2010,06,22,16,06,22.40
2010,06,22,16,07,22.40
2010,06,22,16,08,22.30
2010,06,22,16,09,22.30
2010,06,22,16,10,22.30
2010,06,22,16,11,22.30
2010,06,22,16,12,22.30
2010,06,22,16,13,22.30
2010,06,22,16,14,22.30
2010,06,22,16,15,22.30
2010,06,22,16,16,22.30
2010,06,22,16,17,22.30
2010,06,22,16,18,22.40
2010,06,22,16,19,22.50
2010,06,22,16,20,22.50
2010,06,22,16,21,22.50
2010,06,22,16,22,22.50
2010,06,22,16,23,22.40
2010,06,22,16,24,22.40
2010,06,22,16,25,22.40
2010,06,22,16,26,22.40
2010,06,22,16,27,22.40
2010,06,22,16,28,22.30
2010,06,22,16,29,22.40
2010,06,22,16,30,22.40
2010,06,22,16,31,22.40
2010,06,22,16,32,22.40
2010,06,22,16,33,22.30
2010,06,22,16,34,22.30
2010,06,22,16,35,22.30
2010,06,22,16,36,22.30
2010,06,22,16,37,22.30
2010,06,22,16,38,22.30
2010,06,22,16,39,22.30
2010,06,22,16,40,22.30
2010,06,22,16,41,22.30
2010,06,22,16,42,22.30
2010,06,22,16,43,22.40
2010,06,22,16,44,22.40
2010,06,22,16,45,22.50
2010,06,22,16,46,22.50
2010,06,22,16,47,22.60
2010,06,22,16,48,22.60
2010,06,22,16,49,22.60
2010,06,22,16,50,22.60
2010,06,22,16,51,22.50
2010,06,22,16,52,22.50
2010,06,22,16,53,22.40
2010,06,22,16,54,22.50
2010,06,22,16,55,22.50
2010,06,22,16,56,22.50
2010,06,22,16,57,22.50
2010,06,22,16,58,22.60
2010,06,22,16,59,22.60
2010,06,22,17,00,22.60
2010,06,22,17,01,22.60
2010,06,22,17,02,22.50
2010,06,22,17,03,22.40
2010,06,22,17,04,22.40
2010,06,22,17,05,22.30
2010,06,22,17,06,22.30
2010,06,22,17,07,22.30
2010,06,22,17,08,22.30
2010,06,22,17,09,22.40
2010,06,22,17,10,22.40
2010,06,22,17,11,22.40
2010,06,22,17,12,22.40
2010,06,22,17,13,22.40
2010,06,22,17,14,22.40
2010,06,22,17,15,22.30
2010,06,22,17,16,22.30
2010,06,22,17,17,22.40
2010,06,22,17,18,22.40
2010,06,22,17,19,22.40
2010,06,22,17,20,22.40
2010,06,22,17,21,22.40
2010,06,22,17,22,22.50
2010,06,22,17,23,22.50
2010,06,22,17,24,22.60
2010,06,22,17,25,22.60
2010,06,22,17,26,22.60
2010,06,22,17,27,22.70
2010,06,22,17,28,22.80
2010,06,22,17,29,22.80
2010,06,22,17,30,22.90
2010,06,22,17,31,22.90
2010,06,22,17,32,22.80
2010,06,22,17,33,22.80
2010,06,22,17,34,22.80
2010,06,22,17,35,22.80
2010,06,22,17,36,22.80
2010,06,22,17,37,22.70
2010,06,22,17,38,22.60
2010,06,22,17,39,22.50
2010,06,22,17,40,22.50
2010,06,22,17,41,22.50
2010,06,22,17,42,22.60
2010,06,22,17,43,22.60
2010,06,22,17,44,22.50
2010,06,22,17,45,22.50
2010,06,22,17,46,22.50
2010,06,22,17,47,22.50
2010,06,22,17,48,22.50
2010,06,22,17,49,22.50
2010,06,22,17,50,22.50
2010,06,22,17,51,22.40
2010,06,22,17,52,22.40
2010,06,22,17,53,22.40
2010,06,22,17,54,22.50
2010,06,22,17,55,22.50
2010,06,22,17,56,22.60
2010,06,22,17,57,22.60
2010,06,22,17,58,22.60
2010,06,22,17,59,22.70
2010,06,22,18,00,22.70
2010,06,22,18,01,22.70
2010,06,22,18,02,22.80
2010,06,22,18,03,22.80
2010,06,22,18,04,22.80
2010,06,22,18,05,22.70
2010,06,22,18,06,22.70
2010,06,22,18,07,22.80
2010,06,22,18,08,22.80
2010,06,22,18,09,22.80
2010,06,22,18,10,22.80
2010,06,22,18,11,22.70
2010,06,22,18,12,22.70
2010,06,22,18,13,22.70
2010,06,22,18,14,22.70
2010,06,22,18,15,22.70
2010,06,22,18,16,22.60
2010,06,22,18,17,22.60
2010,06,22,18,18,22.60
2010,06,22,18,19,22.50
2010,06,22,18,20,22.40
2010,06,22,18,21,22.30
2010,06,22,18,22,22.30
2010,06,22,18,23,22.30
2010,06,22,18,24,22.30
2010,06,22,18,25,22.30
2010,06,22,18,26,22.20
2010,06,22,18,27,22.20
2010,06,22,18,28,22.10
2010,06,22,18,29,22.10
2010,06,22,18,30,22.10
2010,06,22,18,31,22.10
2010,06,22,18,32,22.10
2010,06,22,18,33,22.10
2010,06,22,18,34,22.20
2010,06,22,18,35,22.20
2010,06,22,18,36,22.10
2010,06,22,18,37,22.10
2010,06,22,18,38,22.00
2010,06,22,18,39,22.00
2010,06,22,18,40,21.90
2010,06,22,18,41,21.90
2010,06,22,18,42,22.00
2010,06,22,18,43,22.00
2010,06,22,18,44,22.00
2010,06,22,18,45,22.00
2010,06,22,18,46,22.00
2010,06,22,18,47,22.00
2010,06,22,18,48,22.00
2010,06,22,18,49,22.00
2010,06,22,18,50,22.00
2010,06,22,18,51,21.90
2010,06,22,18,52,21.90
2010,06,22,18,53,21.90
2010,06,22,18,54,21.90
2010,06,22,18,55,21.90
2010,06,22,18,56,21.90
2010,06,22,18,57,21.80
2010,06,22,18,58,21.80
2010,06,22,18,59,21.80
2010,06,22,19,00,21.80
2010,06,22,19,01,21.80
2010,06,22,19,02,21.70
2010,06,22,19,03,21.70
2010,06,22,19,04,21.70
2010,06,22,19,05,21.70
2010,06,22,19,06,21.60
2010,06,22,19,07,21.50
2010,06,22,19,08,21.50
2010,06,22,19,09,21.40
2010,06,22,19,10,21.40
2010,06,22,19,11,21.50
2010,06,22,19,12,21.50
2010,06,22,19,13,21.50
2010,06,22,19,14,21.50
2010,06,22,19,15,21.50
2010,06,22,19,16,21.50
2010,06,22,19,17,21.50
2010,06,22,19,18,21.50
2010,06,22,19,19,21.50
2010,06,22,19,20,21.50
2010,06,22,19,21,21.50
2010,06,22,19,22,21.40
2010,06,22,19,23,21.30
2010,06,22,19,24,21.30
2010,06,22,19,25,21.20
2010,06,22,19,26,21.20
2010,06,22,19,27,21.20
2010,06,22,19,28,21.20
2010,06,22,19,29,21.20
2010,06,22,19,30,21.20
2010,06,22,19,31,21.20
2010,06,22,19,32,21.20
2010,06,22,19,33,21.10
2010,06,22,19,34,21.10
2010,06,22,19,35,21.10
2010,06,22,19,36,21.10
2010,06,22,19,37,21.10
2010,06,22,19,38,21.10
2010,06,22,19,39,21.10
2010,06,22,19,40,21.10
2010,06,22,19,41,21.10
2010,06,22,19,42,21.10
2010,06,22,19,43,21.10
2010,06,22,19,44,21.10
2010,06,22,19,45,21.10
2010,06,22,19,46,21.10
2010,06,22,19,47,21.10
2010,06,22,19,48,21.10
2010,06,22,19,49,21.10
2010,06,22,19,50,21.00
2010,06,22,19,51,21.00
2010,06,22,19,52,20.90
2010,06,22,19,53,20.90
2010,06,22,19,54,20.80
2010,06,22,19,55,20.80
2010,06,22,19,56,20.80
2010,06,22,19,57,20.80
2010,06,22,19,58,20.70
2010,06,22,19,59,20.70
2010,06,22,20,00,20.70
2010,06,22,20,01,20.70
2010,06,22,20,02,20.70
2010,06,22,20,03,20.60
2010,06,22,20,04,20.60
2010,06,22,20,05,20.60
2010,06,22,20,06,20.60
2010,06,22,20,07,20.50
2010,06,22,20,08,20.50
2010,06,22,20,09,20.50
2010,06,22,20,10,20.50
2010,06,22,20,11,20.50
2010,06,22,20,12,20.40
2010,06,22,20,13,20.40
2010,06,22,20,14,20.40
2010,06,22,20,15,20.40
2010,06,22,20,16,20.30
2010,06,22,20,17,20.30
2010,06,22,20,18,20.30
2010,06,22,20,19,20.30
2010,06,22,20,20,20.30
2010,06,22,20,21,20.20
2010,06,22,20,22,20.20
2010,06,22,20,23,20.20
2010,06,22,20,24,20.10
2010,06,22,20,25,20.10
2010,06,22,20,26,20.10
2010,06,22,20,27,20.00
2010,06,22,20,28,20.00
2010,06,22,20,29,20.00
2010,06,22,20,30,19.90
2010,06,22,20,31,19.90
2010,06,22,20,32,19.90
2010,06,22,20,33,19.90
2010,06,22,20,34,19.80
2010,06,22,20,35,19.80
2010,06,22,20,36,19.80
2010,06,22,20,37,19.80
2010,06,22,20,38,19.80
2010,06,22,20,39,19.70
2010,06,22,20,40,19.70
2010,06,22,20,41,19.70
2010,06,22,20,42,19.70
2010,06,22,20,43,19.70
2010,06,22,20,44,19.60
2010,06,22,20,45,19.60
2010,06,22,20,46,19.60
2010,06,22,20,47,19.60
2010,06,22,20,48,19.60
2010,06,22,20,49,19.50
2010,06,22,20,50,19.50
2010,06,22,20,51,19.40
2010,06,22,20,52,19.40
2010,06,22,20,53,19.40
2010,06,22,20,54,19.40
2010,06,22,20,55,19.30
2010,06,22,20,56,19.30
2010,06,22,20,57,19.30
2010,06,22,20,58,19.20
2010,06,22,20,59,19.20
2010,06,22,21,00,19.20
2010,06,22,21,01,19.10
2010,06,22,21,02,19.10
2010,06,22,21,03,19.10
2010,06,22,21,04,19.10
2010,06,22,21,05,19.10
2010,06,22,21,06,19.10
2010,06,22,21,07,19.00
2010,06,22,21,08,19.00
2010,06,22,21,09,19.00
2010,06,22,21,10,18.90
2010,06,22,21,11,18.90
2010,06,22,21,12,18.90
2010,06,22,21,13,18.90
2010,06,22,21,14,18.90
2010,06,22,21,15,18.80
2010,06,22,21,16,18.80
2010,06,22,21,17,18.80
2010,06,22,21,18,18.80
2010,06,22,21,19,18.80
2010,06,22,21,20,18.70
2010,06,22,21,21,18.70
2010,06,22,21,22,18.70
2010,06,22,21,23,18.70
2010,06,22,21,24,18.70
2010,06,22,21,25,18.70
2010,06,22,21,26,18.70
2010,06,22,21,27,18.60
2010,06,22,21,28,18.60
2010,06,22,21,29,18.60
2010,06,22,21,30,18.60
2010,06,22,21,31,18.60
2010,06,22,21,32,18.50
2010,06,22,21,33,18.50
2010,06,22,21,34,18.50
2010,06,22,21,35,18.50
2010,06,22,21,36,18.40
2010,06,22,21,37,18.40
2010,06,22,21,38,18.40
2010,06,22,21,39,18.40
2010,06,22,21,40,18.40
2010,06,22,21,41,18.40
2010,06,22,21,42,18.30
2010,06,22,21,43,18.30
2010,06,22,21,44,18.30
2010,06,22,21,45,18.30
2010,06,22,21,46,18.20
2010,06,22,21,47,18.20
2010,06,22,21,48,18.20
2010,06,22,21,49,18.20
2010,06,22,21,50,18.20
2010,06,22,21,51,18.10
2010,06,22,21,52,18.10
2010,06,22,21,53,18.10
2010,06,22,21,54,18.10
2010,06,22,21,55,18.10
2010,06,22,21,56,18.10
2010,06,22,21,57,18.00
2010,06,22,21,58,18.00
2010,06,22,21,59,18.00
2010,06,22,22,00,18.00
2010,06,22,22,01,17.90
2010,06,22,22,02,17.90
2010,06,22,22,03,17.90
2010,06,22,22,04,17.90
2010,06,22,22,05,17.90
2010,06,22,22,06,17.90
2010,06,22,22,07,17.90
2010,06,22,22,08,17.90
2010,06,22,22,09,17.80
2010,06,22,22,10,17.80
2010,06,22,22,11,17.80
2010,06,22,22,12,17.80
2010,06,22,22,13,17.80
2010,06,22,22,14,17.80
2010,06,22,22,15,17.80
2010,06,22,22,16,17.80
2010,06,22,22,17,17.70
2010,06,22,22,18,17.70
2010,06,22,22,19,17.70
2010,06,22,22,20,17.70
2010,06,22,22,21,17.70
2010,06,22,22,22,17.70
2010,06,22,22,23,17.70
2010,06,22,22,24,17.70
2010,06,22,22,25,17.70
2010,06,22,22,26,17.70
2010,06,22,22,27,17.70
2010,06,22,22,28,17.70
2010,06,22,22,29,17.60
2010,06,22,22,30,17.60
2010,06,22,22,31,17.60
2010,06,22,22,32,17.60
2010,06,22,22,33,17.60
2010,06,22,22,34,17.60
2010,06,22,22,35,17.60
2010,06,22,22,36,17.60
2010,06,22,22,37,17.60
2010,06,22,22,38,17.60
2010,06,22,22,39,17.60
2010,06,22,22,40,17.50
2010,06,22,22,41,17.50
2010,06,22,22,42,17.50
2010,06,22,22,43,17.50
2010,06,22,22,44,17.50
2010,06,22,22,45,17.50
2010,06,22,22,46,17.50
2010,06,22,22,47,17.40
2010,06,22,22,48,17.40
2010,06,22,22,49,17.40
2010,06,22,22,50,17.40
2010,06,22,22,51,17.40
2010,06,22,22,52,17.40
2010,06,22,22,53,17.40
2010,06,22,22,54,17.40
2010,06,22,22,55,17.40
2010,06,22,22,56,17.40
2010,06,22,22,57,17.40
2010,06,22,22,58,17.40
2010,06,22,22,59,17.30
2010,06,22,23,00,17.30
2010,06,22,23,01,17.30
2010,06,22,23,02,17.30
2010,06,22,23,03,17.30
2010,06,22,23,04,17.30
2010,06,22,23,05,17.30
2010,06,22,23,06,17.30
2010,06,22,23,07,17.30
2010,06,22,23,08,17.30
2010,06,22,23,09,17.30
2010,06,22,23,10,17.30
2010,06,22,23,11,17.30
2010,06,22,23,12,17.30
2010,06,22,23,13,17.30
2010,06,22,23,14,17.30
2010,06,22,23,15,17.30
2010,06,22,23,16,17.30
2010,06,22,23,17,17.20
2010,06,22,23,18,17.20
2010,06,22,23,19,17.20
2010,06,22,23,20,17.20
2010,06,22,23,21,17.20
2010,06,22,23,22,17.20
2010,06,22,23,23,17.20
2010,06,22,23,24,17.10
2010,06,22,23,25,17.10
2010,06,22,23,26,17.10
2010,06,22,23,27,17.10
2010,06,22,23,28,17.10
2010,06,22,23,29,17.10
2010,06,22,23,30,17.10
2010,06,22,23,31,17.10
2010,06,22,23,32,17.00
2010,06,22,23,33,17.00
2010,06,22,23,34,17.00
2010,06,22,23,35,17.00
2010,06,22,23,36,17.00
2010,06,22,23,37,17.00
2010,06,22,23,38,17.00
2010,06,22,23,39,17.00
2010,06,22,23,40,16.90
2010,06,22,23,41,16.90
2010,06,22,23,42,16.90
2010,06,22,23,43,16.90
2010,06,22,23,44,16.90
2010,06,22,23,45,16.90
2010,06,22,23,46,16.80
2010,06,22,23,47,16.80
2010,06,22,23,48,16.80
2010,06,22,23,49,16.80
2010,06,22,23,50,16.80
2010,06,22,23,51,16.80
2010,06,22,23,52,16.80
2010,06,22,23,53,16.70
2010,06,22,23,54,16.70
2010,06,22,23,55,16.70
2010,06,22,23,56,16.70
2010,06,22,23,57,16.70
2010,06,22,23,58,16.70
2010,06,22,23,59,16.70
